FW8286 Weather Reports


Display with metric or nautical units.
time (UTC)temp
F
wind
direction
speed
MPH
gust
MPH
rain 1hr
in
rain 24hr
in
rain mn
in
humidity
%
barometer
mb
20260506102029 44 315 2.0 11.0 0.00 0.00 0.00 94 1009.5
20260506101546 44 305 3.0 11.0 0.00 0.00 0.00 94 1009.8
20260506101028 44 304 4.0 9.0 0.00 0.00 0.00 94 1010.0
20260506100534 44 302 3.0 7.0 0.00 0.00 0.00 94 1009.8
20260506100040 44 298 3.0 5.0 0.00 0.00 0.00 94 1009.5
20260506095528 44 350 1.0 3.0 0.00 0.00 0.00 94 1009.1
20260506095028 44 350 1.0 2.0 0.00 0.00 0.00 94 1008.8
20260506094554 44 350 1.0 3.0 0.00 0.00 0.00 94 1008.7
20260506094031 44 350 0.0 3.0 0.00 0.00 0.00 94 1008.7
20260506093528 44 350 1.0 5.0 0.00 0.00 0.00 94 1009.0
20260506093044 44 351 2.0 5.0 0.00 0.00 0.00 94 1009.1
20260506092528 44 355 1.0 4.0 0.00 0.00 0.00 94 1009.3
20260506092029 45 336 2.0 6.0 0.00 0.00 0.00 94 1009.5
20260506091543 45 338 2.0 8.0 0.00 0.00 0.00 94 1009.9
20260506091030 45 302 3.0 8.0 0.00 0.00 0.00 94 1010.0
20260506090528 45 313 3.0 8.0 0.00 0.00 0.00 94 1010.0
20260506090041 45 290 2.0 7.0 0.00 0.00 0.00 94 1010.0
20260506085528 45 286 3.0 7.0 0.00 0.00 0.00 94 1010.1
20260506085028 45 296 3.0 7.0 0.00 0.00 0.00 94 1009.8
20260506084543 45 288 2.0 6.0 0.00 0.00 0.00 94 1009.7
20260506084028 45 285 2.0 6.0 0.00 0.00 0.00 94 1009.7
20260506083528 45 329 2.0 3.0 0.00 0.00 0.00 94 1009.5
20260506083041 45 331 1.0 3.0 0.00 0.00 0.00 94 1009.4
20260506082532 45 331 1.0 3.0 0.00 0.00 0.00 94 1009.3
20260506082032 45 333 1.0 3.0 0.00 0.00 0.00 94 1009.5
20260506081547 45 334 1.0 3.0 0.00 0.00 0.00 94 1009.5
20260506081031 45 334 1.0 7.0 0.00 0.00 0.00 94 1009.6
20260506080527 45 306 2.0 7.0 0.00 0.00 0.00 94 1009.6
20260506073528 45 316 1.0 4.0 0.00 0.00 0.00 93 1009.7
20260506073042 45 316 1.0 4.0 0.00 0.00 0.00 93 1009.6
20260506072531 45 316 2.0 4.0 0.00 0.00 0.00 93 1009.5
20260506072029 45 309 1.0 4.0 0.00 0.00 0.00 93 1009.6
20260506071545 45 321 2.0 4.0 0.00 0.00 0.00 94 1009.6
20260506071028 45 325 2.0 4.0 0.00 0.00 0.00 93 1009.6
20260506070528 45 12 1.0 3.0 0.00 0.00 0.00 93 1009.5
20260506062028 45 14 2.0 6.0 0.00 0.00 0.00 93 1009.5
20260506061542 45 5 3.0 6.0 0.00 0.00 0.00 93 1009.5
20260506061031 45 10 2.0 5.0 0.00 0.00 0.00 93 1009.5
20260506060531 45 11 3.0 7.0 0.00 0.00 0.00 93 1009.7
20260506051027 45 19 2.0 5.0 0.00 0.00 0.00 93 1009.8
20260506050528 45 14 2.0 8.0 0.00 0.00 0.00 93 1009.8
20260506045027 46 17 5.0 10.0 0.00 0.00 0.00 93 1009.7
20260506044541 46 360 5.0 10.0 0.00 0.00 0.00 93 1009.8
20260506044028 46 23 4.0 9.0 0.00 0.00 0.00 93 1009.7
20260506043528 46 5 5.0 9.0 0.00 0.00 0.00 93 1009.8
20260506043046 46 5 4.0 11.0 0.00 0.00 0.00 93 1009.9
20260506042528 46 17 5.0 11.0 0.00 0.00 0.00 93 1009.9
20260506042028 47 360 6.0 10.0 0.00 0.00 0.00 93 1010.0
20260506041542 47 340 5.0 10.0 0.00 0.00 0.00 94 1010.0
20260506041027 47 355 6.0 11.0 0.00 0.00 0.00 93 1010.0
20260506040530 47 344 5.0 11.0 0.00 0.00 0.00 93 1010.1
20260506040044 48 339 7.0 11.0 0.00 0.00 0.00 93 1010.1
20260506035528 48 5 4.0 9.0 0.00 0.00 0.00 94 1010.1
20260506035029 48 355 3.0 6.0 0.00 0.00 0.00 94 1010.2
20260506034541 48 350 3.0 6.0 0.00 0.00 0.00 94 1010.1
20260506034031 48 347 2.0 4.0 0.00 0.00 0.00 94 1010.3
20260506033528 48 328 1.0 4.0 0.00 0.00 0.00 94 1010.4
20260506033040 48 327 1.0 4.0 0.00 0.00 0.00 94 1010.5
20260506032528 48 325 2.0 4.0 0.00 0.00 0.00 94 1010.5
20260506032031 48 324 2.0 4.0 0.00 0.00 0.00 94 1010.6
20260506031550 48 311 2.0 4.0 0.00 0.00 0.00 94 1010.6
20260506031028 48 355 2.0 4.0 0.00 0.00 0.00 94 1010.8
20260506030527 49 344 1.0 3.0 0.00 0.00 0.00 94 1010.8
20260506030043 49 344 0.0 5.0 0.00 0.00 0.00 94 1010.6
20260506025527 49 344 2.0 5.0 0.00 0.00 0.00 94 1010.6
20260506025030 49 355 2.0 4.0 0.00 0.00 0.00 94 1010.8
20260506024547 49 355 1.0 5.0 0.00 0.00 0.00 94 1010.8
20260506024028 49 355 2.0 5.0 0.00 0.00 0.00 94 1010.6
20260506023529 49 355 1.0 4.0 0.00 0.00 0.00 94 1010.7
20260506023047 49 355 1.0 3.0 0.00 0.00 0.00 94 1010.7
20260506022530 49 0 0.0 1.0 0.00 0.00 0.00 94 1010.7
20260506022027 49 0 0.0 2.0 0.00 0.00 0.00 94 1010.6
20260506021544 49 355 0.0 4.0 0.00 0.00 0.00 94 1010.6
20260506021028 49 355 1.0 4.0 0.00 0.00 0.00 94 1010.6
20260506020530 49 355 2.0 4.0 0.00 0.00 0.00 94 1010.4
20260506020040 49 360 3.0 4.0 0.00 0.00 0.00 94 1010.2
20260506015532 49 360 2.0 4.0 0.00 0.00 0.00 94 1010.1
20260506015028 49 360 2.0 5.0 0.00 0.00 0.00 94 1010.0
20260506014546 49 5 2.0 7.0 0.00 0.00 0.00 94 1010.1
20260506014027 49 5 3.0 9.0 0.00 0.00 0.00 94 1010.0
20260506013529 49 22 4.0 9.0 0.00 0.00 0.00 94 1009.9
20260506013041 49 21 3.0 7.0 0.00 0.00 0.00 93 1009.9
20260506012527 49 22 4.0 7.0 0.00 0.00 0.00 94 1009.9
20260506012030 49 28 3.0 5.0 0.00 0.00 0.00 94 1009.9
20260506011544 49 24 2.0 7.0 0.00 0.00 0.00 94 1009.9
20260506011031 49 346 4.0 8.0 0.00 0.00 0.00 94 1010.0
20260506010528 49 360 3.0 8.0 0.00 0.00 0.00 93 1010.1
20260506010046 49 352 4.0 8.0 0.00 0.00 0.00 93 1009.9
20260506005528 50 5 3.0 7.0 0.00 0.00 0.00 93 1010.0
20260506005027 50 342 3.0 8.0 0.00 0.00 0.00 93 1010.1
20260506004540 50 360 4.0 8.0 0.00 0.00 0.00 93 1010.0
20260506004028 50 342 4.0 8.0 0.00 0.00 0.00 93 1009.8
20260506003529 50 355 4.0 6.0 0.00 0.00 0.00 93 1009.8
20260506003041 50 352 3.0 6.0 0.00 0.00 0.00 93 1009.7
20260506002527 50 349 3.0 9.0 0.00 0.00 0.00 93 1009.8
20260506002027 50 5 4.0 9.0 0.00 0.00 0.00 93 1009.7
20260506001546 50 46 4.0 9.0 0.00 0.00 0.00 93 1009.5
20260506001028 50 5 4.0 8.0 0.00 0.00 0.00 93 1009.5
20260506000528 50 32 3.0 6.0 0.00 0.00 0.00 93 1009.2
20260506000044 50 34 3.0 6.0 0.00 0.00 0.00 93 1009.3
20260505235530 50 36 1.0 6.0 0.00 0.00 0.00 93 1009.2
20260505235030 50 41 2.0 6.0 0.00 0.00 0.00 93 1009.2
20260505234548 50 41 2.0 6.0 0.00 0.00 0.00 93 1009.4
20260505234031 50 26 2.0 5.0 0.00 0.00 0.00 93 1009.2
20260505233527 50 17 3.0 6.0 0.00 0.00 0.00 93 1009.4
20260505233042 50 350 2.0 6.0 0.00 0.00 0.00 93 1009.4
20260505232527 50 346 3.0 6.0 0.00 0.00 0.00 93 1009.5
20260505232027 50 355 3.0 8.0 0.00 0.00 0.00 93 1009.6
20260505231551 50 13 4.0 8.0 0.00 0.00 0.00 93 1009.7
20260505231027 50 19 2.0 10.0 0.00 0.00 0.00 93 1009.5
20260505230527 50 355 3.0 10.0 0.00 0.00 0.00 92 1009.5
20260505230053 50 11 3.0 8.0 0.00 0.00 0.00 92 1009.7
20260505225528 51 344 2.0 8.0 0.00 0.00 0.00 92 1009.8
20260505225030 51 304 3.0 12.0 0.00 0.00 0.00 92 1009.9
20260505224544 51 323 7.0 12.0 0.00 0.00 0.00 92 1009.9
20260505224027 52 315 6.0 11.0 0.00 0.00 0.00 92 1010.0
20260505223530 52 328 3.0 9.0 0.00 0.00 0.00 92 1010.0
20260505223041 53 300 4.0 13.0 0.00 0.00 0.00 91 1010.1
20260505222527 53 306 3.0 13.0 0.00 0.00 0.00 91 1009.8
20260505222028 54 345 5.0 12.0 0.00 0.00 0.00 91 1009.7
20260505221542 56 302 5.0 12.0 0.00 0.00 0.00 92 1009.8
20260505221034 56 329 3.0 5.0 0.00 0.00 0.00 93 1009.1
20260505220528 56 342 2.0 4.0 0.00 0.00 0.00 93 1009.0
20260505220047 56 344 1.0 4.0 0.00 0.00 0.00 93 1009.1
20260505215529 57 307 1.0 3.0 0.00 0.00 0.00 92 1009.0
20260505215028 57 307 2.0 4.0 0.00 0.00 0.00 93 1009.0
20260505214543 57 298 1.0 4.0 0.00 0.00 0.00 93 1008.9
20260505214028 57 252 1.0 3.0 0.00 0.00 0.00 93 1009.0
20260505213527 57 0 1.0 3.0 0.00 0.00 0.00 93 1008.9
20260505213052 57 0 0.0 3.0 0.00 0.00 0.00 93 1008.9
20260505212526 57 249 1.0 3.0 0.00 0.00 0.00 92 1009.0
20260505212028 57 249 0.0 3.0 0.00 0.00 0.00 92 1008.9
20260505211544 57 250 1.0 4.0 0.00 0.00 0.00 92 1009.0
20260505211028 57 250 1.0 4.0 0.00 0.00 0.00 92 1008.9
20260505210527 57 261 2.0 4.0 0.00 0.00 0.00 92 1009.0
20260505210040 57 0 2.0 7.0 0.00 0.00 0.00 92 1009.0
20260505205528 57 281 2.0 7.0 0.00 0.00 0.00 92 1009.0
20260505205028 57 234 1.0 4.0 0.00 0.00 0.00 92 1009.2
20260505204538 57 232 0.0 4.0 0.00 0.00 0.00 92 1009.2
20260505204028 57 0 1.0 6.0 0.00 0.00 0.00 91 1009.2
20260505203528 57 261 3.0 8.0 0.00 0.00 0.00 91 1009.1
20260505203045 57 250 2.0 8.0 0.00 0.00 0.00 91 1009.2
20260505202528 58 228 2.0 5.0 0.00 0.00 0.00 91 1009.3
20260505202028 58 237 1.0 3.0 0.00 0.00 0.00 91 1009.3
20260505201547 58 257 1.0 5.0 0.00 0.00 0.00 91 1009.4
20260505201031 58 250 1.0 5.0 0.00 0.00 0.00 90 1009.1
20260505200528 58 244 1.0 3.0 0.00 0.00 0.00 90 1009.0
20260505200044 58 244 0.0 4.0 0.00 0.00 0.00 90 1009.1
20260505195531 58 246 0.0 4.0 0.00 0.00 0.00 90 1009.0
20260505195027 58 246 1.0 3.0 0.00 0.00 0.00 90 1009.4
20260505194546 58 248 1.0 3.0 0.00 0.00 0.00 89 1009.2
20260505194028 58 248 0.0 4.0 0.00 0.00 0.00 89 1009.1
20260505193527 58 0 1.0 6.0 0.00 0.00 0.00 89 1009.5
20260505193040 59 247 2.0 9.0 0.00 0.00 0.00 89 1009.6
20260505192530 59 257 3.0 9.0 0.00 0.00 0.00 88 1009.5
20260505192028 59 254 5.0 9.0 0.00 0.00 0.00 88 1009.4
20260505191552 59 263 4.0 10.0 0.00 0.00 0.00 87 1009.5
20260505191031 59 265 5.0 10.0 0.00 0.00 0.00 86 1009.6
20260505190527 60 266 4.0 9.0 0.00 0.00 0.00 86 1009.6
20260505190048 60 267 5.0 9.0 0.00 0.00 0.00 84 1009.5
20260505185528 60 258 4.0 9.0 0.00 0.00 0.00 84 1009.3
20260505185029 61 273 3.0 12.0 0.00 0.00 0.00 83 1009.3
20260505184543 61 269 6.0 13.0 0.00 0.00 0.00 81 1009.5
20260505184027 62 245 6.0 13.0 0.00 0.00 0.00 79 1009.7
20260505183526 63 257 7.0 13.0 0.00 0.00 0.00 77 1009.6
20260505183042 63 264 3.0 9.0 0.00 0.00 0.00 76 1009.6
20260505182530 64 253 4.0 9.0 0.00 0.00 0.00 76 1009.5
20260505182026 64 257 2.0 8.0 0.00 0.00 0.00 77 1009.4
20260505181541 63 257 4.0 8.0 0.00 0.00 0.00 77 1009.4
20260505181027 63 246 3.0 10.0 0.00 0.00 0.00 77 1009.3
20260505180528 63 268 3.0 12.0 0.00 0.00 0.00 76 1009.3
20260505180053 63 281 6.0 12.0 0.00 0.00 0.00 76 1009.4
20260505175529 63 242 5.0 15.0 0.00 0.00 0.00 76 1009.4
20260505175028 63 270 6.0 15.0 0.00 0.00 0.00 76 1009.2
20260505174552 64 261 8.0 15.0 0.00 0.00 0.00 75 1009.1
20260505174027 64 255 6.0 14.0 0.00 0.00 0.00 75 1009.2
20260505173529 64 271 8.0 14.0 0.00 0.00 0.00 74 1009.3
20260505173046 64 282 8.0 14.0 0.00 0.00 0.00 74 1009.3
20260505172526 64 208 6.0 12.0 0.00 0.00 0.00 75 1009.2
20260505172028 64 243 2.0 14.0 0.00 0.00 0.00 76 1009.3
20260505171547 64 230 5.0 14.0 0.00 0.00 0.00 74 1009.3
20260505171028 64 290 6.0 14.0 0.00 0.00 0.00 73 1009.4
20260505170526 64 300 6.0 15.0 0.00 0.00 0.00 73 1009.2
20260505170039 64 249 6.0 16.0 0.00 0.00 0.00 73 1009.2
20260505165528 64 257 7.0 17.0 0.00 0.00 0.00 72 1009.4
20260505165025 64 207 7.0 17.0 0.00 0.00 0.00 72 1009.3
20260505164549 64 227 7.0 17.0 0.00 0.00 0.00 72 1009.2
20260505164031 65 263 7.0 18.0 0.00 0.00 0.00 71 1009.1
20260505163529 65 232 9.0 18.0 0.00 0.00 0.00 71 1009.2
20260505163044 64 217 6.0 18.0 0.00 0.00 0.00 73 1009.0
20260505162526 64 251 8.0 18.0 0.00 0.00 0.00 72 1009.1
20260505162028 65 258 6.0 14.0 0.00 0.00 0.00 71 1009.2
20260505161550 65 210 7.0 18.0 0.00 0.00 0.00 70 1009.1
20260505161029 65 253 8.0 18.0 0.00 0.00 0.00 69 1009.1
20260505160527 66 246 7.0 17.0 0.00 0.00 0.00 69 1009.1
20260505153048 67 206 7.0 21.0 0.00 0.00 0.00 70 1008.3
20260505152525 67 209 10.0 20.0 0.00 0.00 0.00 68 1008.1
20260505152028 67 215 7.0 19.0 0.00 0.00 0.00 71 1007.9
20260505151546 67 209 8.0 20.0 0.00 0.00 0.00 69 1007.8
20260505151028 66 250 12.0 20.0 0.00 0.00 0.00 70 1007.8
20260505150528 66 214 8.0 19.0 0.00 0.00 0.00 71 1007.7
20260505140528 65 203 5.0 19.0 0.00 0.00 0.00 74 1007.9
20260505125027 60 196 6.0 11.0 0.00 0.00 0.00 81 1007.8
20260505124600 60 207 5.0 9.0 0.00 0.00 0.00 81 1007.8
20260505124026 60 205 6.0 12.0 0.00 0.00 0.00 81 1007.7
20260505123525 60 198 7.0 12.0 0.00 0.00 0.00 80 1007.7
20260505123059 60 225 7.0 12.0 0.00 0.00 0.00 81 1007.5
20260505122525 60 209 7.0 12.0 0.00 0.00 0.00 80 1007.6
20260505122025 60 216 7.0 14.0 0.00 0.00 0.00 80 1007.7
20260505121542 60 189 7.0 14.0 0.00 0.00 0.00 80 1007.5
20260505121029 60 222 8.0 15.0 0.00 0.00 0.00 79 1007.5
20260505120531 60 215 7.0 16.0 0.00 0.00 0.00 79 1007.4
20260505120053 60 205 9.0 27.0 0.00 0.00 0.00 78 1007.2
20260505115525 61 234 13.0 27.0 0.00 0.00 0.00 77 1006.8
20260505115025 61 202 10.0 19.0 0.00 0.00 0.00 76 1006.7
20260505114542 61 208 8.0 19.0 0.00 0.00 0.00 75 1006.7
20260505114028 61 246 8.0 19.0 0.00 0.00 0.00 75 1006.4
20260505113526 61 182 7.0 20.0 0.00 0.00 0.00 76 1006.2
20260505113049 60 200 8.0 20.0 0.00 0.00 0.00 77 1006.1
20260505112525 60 202 8.0 13.0 0.00 0.00 0.00 78 1005.8
20260505112028 59 200 7.0 16.0 0.00 0.00 0.00 78 1005.9
20260505111543 59 203 8.0 16.0 0.00 0.00 0.00 79 1006.0
20260505111028 59 193 6.0 18.0 0.00 0.00 0.00 80 1005.8
20260505110530 59 197 9.0 18.0 0.00 0.00 0.00 80 1005.7